THORAD AGENA D DEB, 4773

Orbit data source: Space-Track

THORAD AGENA D DEB, 4773 is space debris in SSO originally from a launch on Wed, 08 Apr 1970 UTC launched from the Air Force Western Test Range (AFWTR). Debris objects in space refer to the collection of defunct objects orbiting the Earth. Examples of debris include non-operational satellites, rocket bodies, and fragments generated from explosions, collisions, or faulty payload assembly.

Loading next visibility...
Identifier
4773, 1970-025DT
Orbit
SSO
Country
Flag of USUS
Related business
Manufacturer
Unknown
Mission
Spacecraft
Bus & Motor
Unknown
Mass
Unknown
Launch date (UTC)
1970-04-08 (56 years ago)
Launch vehicle
Unknown
Launch site
Air Force Western Test Range (AFWTR)
Object type
Payload
Rocket body
Debris
Shape & HBR
Unknown shape, 0.1 m
Radar Cross Section
Small (<0.1 m²)

Expand to show TLE details & history
Last TLE update: 13 hours ago

TLE from 13 hours ago
0 THORAD AGENA D DEB
1 04773U 70025DT  25287.21287060  .00000499  00000-0  76700-3 0  9990
2 04773 100.0597 329.0821 0031629 144.6970 288.5821 13.56862666734739
Epoch: 2025-10-14T05:06Z
TLE epoch observation values (Epoch: 2025-10-14T05:06:32.019Z)
Latitude
70.34301°
Longitude
-160.16485°
Altitude
1,051.766 km
Speed
7.336 km/s
True Right ascension
19h 57m 53s
True Declination
70° 14' 17"
Sunlit
Object was in daylight at epoch
Visualization orbit readout
Latitude
Unknown
Longitude
Unknown
Altitude
Unknown
Speed
Unknown
Apparent Right ascension
Unknown
Apparent Declination
Unknown
Sunlit
N/A
Visualization observer readout
Local Sidereal Time
12:57:04
Azimuth
Unknown
Elevation
Unknown
Doppler factor
Unknown
Orbital elements
Apogee altitude
1,067.904 km
Perigee altitude
1,020.95 km
Semi-major axis
7,422.564 km
Eccentricity
0.00316
Inclination
100.0597°
RAAN
329.0821°
Arg. of periapsis
144.697°
True anomaly
288.23812°
Mean anomaly
288.5821°
Eccentric anomaly
288.41015°
Mean motion
3.394 °/min
Orbital period
106.07 mins
BSTAR
0.000767

Documentation

Showing up to 5 results
|